Location: Bretagne
(43.8474°N, 0.4650°W)
Time: 14:42:49
(UTC+00:00)

Cosmos 968 Rocket - Visible Passes

Search period start: 11 April 2026 00:00
Search period end: 21 April 2026 00:00
Orbit: 736 x 765 km, 74.0° (Epoch: 11 April)

Date Brightness Start Highest point End Pass type
(mag) Time Alt. Az. Time Alt. Az. Time Alt. Az.
11 Apr 6.1 00:05:54 10° NNE 00:08:25 13° NE 00:08:30 13° NE visible
11 Apr 4.9 01:45:43 10° NNW 01:48:22 31° NNW 01:48:22 31° NNW visible
12 Apr 5.2 01:03:32 10° N 01:06:28 30° NNE 01:06:28 30° NNE visible
12 Apr 5.7 02:45:51 10° NW 02:46:20 12° NW 02:46:20 12° NW visible
13 Apr 5.5 00:21:38 10° N 00:24:37 23° NNE 00:24:37 23° NNE visible
13 Apr 5.4 02:02:55 10° NNW 02:04:30 19° NW 02:04:30 19° NW visible
13 Apr 5.9 23:40:10 10° NNE 23:42:48 15° NE 23:42:48 15° NE visible
14 Apr 5.2 01:20:24 10° NNW 01:22:40 26° NNW 01:22:40 26° NNW visible
15 Apr 5.2 00:38:09 10° NNW 00:40:54 30° N 00:40:54 30° N visible
15 Apr 5.4 23:56:10 10° N 23:59:09 25° NNE 23:59:09 25° NNE visible
16 Apr 5.6 01:37:43 10° NW 01:39:01 17° NW 01:39:01 17° NW visible
16 Apr 5.7 23:14:33 10° N 23:17:25 18° NE 23:17:25 18° NE visible
17 Apr 5.3 00:55:07 10° NNW 00:57:18 25° NNW 00:57:18 25° NNW visible
17 Apr 6.0 22:34:13 10° NE 22:35:13 10° NE 22:35:42 10° NE visible
18 Apr 5.1 00:12:48 10° NNW 00:15:35 32° N 00:15:35 32° N visible
18 Apr 5.2 23:30:44 10° N 23:33:54 29° NNE 23:33:54 29° NNE visible
19 Apr 5.7 01:12:33 10° NW 01:13:47 16° NW 01:13:47 16° NW visible
19 Apr 5.5 22:48:59 10° N 22:52:15 20° NE 22:52:15 20° NE visible
20 Apr 5.3 00:29:50 10° NNW 00:32:07 26° NW 00:32:07 26° NW visible
20 Apr 5.8 22:07:57 10° NNE 22:10:04 12° NE 22:10:36 12° NE visible
20 Apr 4.9 23:47:27 10° NNW 23:50:29 35° N 23:50:29 35° N visible
